1st Responders/1st Detectors/Storm Spotters Weather Summary for Laurel County, KY

Forecast Maps


Reg. NEXRAD Animation


National Fire Danger: Day 1 & 2 Map

Current NWS Watch/Warnings

SPC Convective Day 1 Outlook


Day 2 Outlook

(Click images to enlarge|Page will refresh every 5 minutes)
UK Ag. Weather Center Desktop Severe Weather Service[HERE]
Laurel County, KY Hazardous Weather Outlook Webcast
(9 AM to 9 PM Mon-Fri)
[Fast]
[Dial-up]


UKAWC 1st Detectors/1st Responders Precision Weather Forecast For LAUREL County, Kentucky
(based on the NWS County Digital Forecast)

ISSUED AT 20:00 UTC ON FRIDAY NOV 22 2019
DAY FRIDAY
EDT 3HR 5P 6P 7P
MAX/MIN -- -- 50°
TEMP 45° 45° 45°
SKY COVER 95% 92% 90%
Clouds
DEW PT 43° 41° 41°
RH 88% 86% 88%
POP 12HR -- -- --
RAIN/SNOW (liq.equ) -- -- --
SNOWFALL -- -- --
WIND SPEED(MPH) 2 2 2
WIND Gust(MPH) 8 9 9
WIND DIR NE NE NE
DEW -- -- Hvy Dew
HeatIndex 45 45 43
Rain Slight Chance Slight Chance --
Rain Showers -- -- --
Thunder Storm -- -- --
WIND CHILL -- -- --
SPRAY COND
DRY COND
LIVESTOCK COLDSTRESS



DAY SATURDAY SUNDAY MONDAY TUESDAY WEDNESDAY THURSDAY
EDT 6HR 8P 9P 10P 11P MIDN 1A 2A 3A 4A 5A 6A 7A 8A 9A 10A 11A NOON 1P 2P 3P 4P 5P 6P 7P 8P 9P 10P 11P MIDN 1A 2A 3A 4A 5A 8A 11A 2P 5P 8P 2A 8A 2P 8P 2A 8A 2P 8P 2A 8A 2P 8P 2A 8A 2P 8P
MAX/MIN -- -- -- -- -- -- -- -- -- -- -- -- 40° -- -- -- -- -- -- -- -- -- -- 58° -- -- -- -- -- -- -- -- -- -- 34° -- -- 49° -- -- 29° 56° -- -- 36° 61° -- -- 40° 54° -- -- 34° 52° --
TEMP 43° 43° 43° 43° 41° 41° 40° 40° 41° 41° 43° 43° 45° 47° 49° 49° 52° 54° 56° 58° 58° 58° 54° 50° 47° 45° 45° 43° 41° 40° 40° 38° 36° 36° 34° 40° 45° 49° 40° 34° 31° 54° 45° 38° 38° 58° 52° 47° 40° 50° 45° 38° 34° 49° 43°
SKY COVER 88% 88% 88% 89% 88% 89% 88% 92% 92% 95% 97% 100% 100% 100% 100% 100% 100% 100% 100% 100% 100% 100% 100% 100% 100% 100% 100% 100% 95% 94% 93% 92% 90% 89% 71% 55% 46% 42% 34% 31% 32% 16% 22% 19% 40% 45% 67% 65% 68% 42% 45% 52% 55% 66% 80%
Clouds
DEW PT 40° 40° 41° 41° 40° 40° 40° 40° 40° 40° 41° 43° 45° 45° 47° 49° 50° 50° 52° 52° 50° 49° 49° 47° 45° 43° 41° 40° 40° 38° 36° 36° 34° 34° 32° 32° 31° 31° 34° 34° 31° 36° 38° 38° 38° 40° 43° 45° 38° 34° 36° 34° 34° 32° 38°
RH 88% 89% 96% 95% 96% 95% 95% 96% 96% 95% 96% 96% 96% 96% 95% 99% 92% 85% 83% 80% 74% 74% 82% 86% 92% 92% 88% 89% 92% 89% 89% 92% 92% 91% 91% 75% 55% 49% 75% 100% 99% 52% 73% 96% 99% 50% 71% 92% 95% 54% 70% 89% 95% 53% 82%
POP 12HR 100% -- -- -- -- -- -- -- -- -- -- -- 62% -- -- -- -- -- -- -- -- -- -- -- 100% -- -- -- -- -- -- -- -- -- 59% -- -- -- 4% -- 2% -- 3% -- 9% -- 26% -- 46% -- 38% -- 18% -- 32%
RAIN/SNOW (liq.equ) 0.01in -- -- -- -- -- 0.00in -- -- -- -- -- 0.07in -- -- -- -- -- 0.37in -- -- -- -- -- 0.12in -- -- -- -- -- 0.01in -- -- -- 0.00in -- 0.00in -- 0.00in 0.00in 0.00in -- -- -- -- -- -- -- -- -- -- -- -- -- --
SNOWFALL 0in -- -- -- -- -- 0in -- -- -- -- -- 0in -- -- -- -- -- 0in -- -- -- -- -- 0in -- -- -- -- -- 0in -- -- -- 0in -- 0in -- 0in 0in 0in -- -- -- -- -- -- -- -- -- -- -- -- -- --
WIND SPEED(MPH) 2 5 5 6 7 7 7 5 2 1 1 1 1 2 5 6 6 7 7 7 7 8 9 9 10 10 10 10 10 9 9 9 8 7 7 7 7 6 5 5 5 7 6 5 5 9 10 14 9 7 6 5 5 5 5
WIND DIR NE NE NE NE NE E NE E E E E E E E SE SE SE S S S SW W W W W W W W W NW NW NW W W W W W W W SW S SW SW SW S S S S S W W N E N NE
HeatIndex 42 41 40 39 37 37 36 38 40 41 43 43 45 47 49 49 52 54 56 58 58 58 54 50 47 45 39 38 35 34 33 31 30 29 29 35 45 49 38 29 26 54 45 35 34 58 52 47 33 50 41 34 31 49 41
Rain -- Slight Chance Slight Chance Slight Chance Slight Chance Slight Chance Slight Chance Chance Chance Chance Chance Likely Likely Likely Definite Definite Definite Definite Definite Definite Definite Definite Likely Likely Likely Chance Chance Chance Chance Chance Slight Chance -- -- -- -- -- -- -- -- -- -- -- -- -- -- -- -- -- -- -- -- -- -- -- --
Rain Showers -- -- -- -- -- -- -- -- -- -- -- -- -- -- -- -- -- -- -- -- -- -- -- -- -- -- -- -- -- -- -- -- -- -- -- -- -- -- -- -- -- -- -- -- -- Slight Chance Chance Chance Chance Slight Chance -- -- Slight Chance Chance Chance
Thunder Storm -- -- -- -- -- -- -- -- -- -- -- -- -- -- -- Slight Chance Slight Chance Slight Chance Slight Chance -- -- -- -- -- -- -- -- -- -- -- -- -- -- -- -- -- -- -- -- -- -- -- -- -- -- -- -- -- -- -- -- -- -- -- --
WIND CHILL -- 40° 40° 39° 36° 36° 35° 37° -- -- -- -- -- -- -- -- -- -- -- -- -- -- -- -- -- 40° 40° 37° 35° 34° 34° 32° 30° 30° 28° 35° 41° -- 37° 30° 26° -- 42° 35° 35° -- -- -- 34° -- 42° 35° 30° -- 40°
SPRAY COND
DRY COND
LIVESTOCK COLDSTRESS

Click on individual weather variable above in left-hand column (ie., TEMP, RH, QPF 12HR) to view state forecast maps






NWS 48 Hr. Forecast Maps,

Regional Hourly Observations For LAUREL County, Kentucky
Issued at 300 PM EST FRI NOV 22 2019
SOUTHEAST KENTUCKY
  
CITY           SKY/WX    TMP DP  RH WIND       PRES   REMARKS
JACKSON        CLOUDY    45  44  97 CALM      30.06R                  
LONDON         CLOUDY    47  44  90 CALM      30.06R                  
SOMERSET       CLOUDY    45  41  87 N5        30.07F                  
MIDDLESBORO    CLOUDY    53  53 100 N3        30.05R                  
MONTICELLO     CLOUDY    47  46  97 NW6G20    30.07F                  


Current NOWCAST not available:
Nowcasts are not issued routinely during fair weather. Only when
precipitation or other significant weather is occuring in this county will these
forecasts be issued. Currently, there is no short term forecast in effect.


Fire Weather Forecast For LAUREL County, KY
Provided by the National Weather Service:

Issued at: Fri Nov 22 15:05:01 EST 2019

611 AM EST Fri Nov 22 2019

                      Today        Tonight      Sat          

Cloud Cover           Cloudy       Mcldy        Cloudy       
Chance precip (%)     100          70           100          
Precip type           rain         rain         tstms        
Temp (24H TREND)      54 (-8)      37 (-11)     59           
Rh % (24H TREND)      53 (+16)     100 (+5)     71           
20ftwnd-AM(mph)       W 4-8 G20                 SE 2-6 G23   
20ftwnd-PM(mph)       N 3-7 G16    NE 2-6 G13   SW 5-9 G27   
Precip duration       5            2            7            
Precip begin          7 AM         Continuing   Continuing   
Precip end            Continuing   Continuing   Continuing   
Precip amount         0.48         0.10         0.57         
LAL                   1            1            2            
Haines Index (MID)    2                         3            
Mixing hgt(ft-AGL)    1600                      400          
Transport wnd (mph)   NE  7                     SW  9        
Vent rate (kt-ft)     10451                     4150         
ADI Early             15 Gen Poor  6 Very Poor  9 Poor       
ADI Late              19 Gen Poor  5 Very Poor  10 Poor      
Max LVORI Early       6            7            7            
Max LVORI Late        5            8            5            

Remarks...None.


SPC's Fire Weather Web Tool (Excellent!), SPC's Fire Weather Outlooks, NWS Fire Weather WEB, Fire Danger Class Map,
Keetch-Byram Drought Index, ROMAN Web, Haines Index ,
WFAS's 10-hr Dead Fuel Moist., WFAS's 100-hr Dead Fuel Moist., Probablity of Ignition, Visual blackness Map, Palmer Drought Index, HPC's Rainfall Forecast Maps


Hazardous Weather Outlook For LAUREL County, Kentucky
336 PM EST Fri Nov 22 2019

 DAY ONE  Tonight.

No hazardous weather is expected at this time.

 DAYS TWO THROUGH SEVEN  Saturday through Thursday.

Isolated thunderstorms are possible Saturday afternoon for areas
mainly along and south of the Hal Rogers Parkway.

 SPOTTER INFORMATION STATEMENT  

Spotter activation is not anticipated.

Latest LAUREL County, Kentucky Watches, Warnings and Advisories.
Additional Drought Info.: UKAWC Drought Page, Kentucky Drought Watch


7-Day Forecast For LAUREL County, KY

TONIGHT
Cloudy. A 40 percent chance of rain showers near dawn. Lows in the lower 40s. Light winds.

SATURDAY
Showers through the day. A slight chance of thunderstorms. Highs in the upper 50s. Light winds becoming southwest around 10 mph in the afternoon. Chance of rain near 100 percent.

SATURDAY NIGHT
Cloudy. A chance of rain showers in the evening, then a slight chance of rain showers near dawn. Lows in the mid 30s. West winds around 10 mph. Chance of rain 50 percent.

SUNDAY
Mostly sunny. Highs around 50. Light winds.

SUNDAY NIGHT
Partly cloudy. Lows in the lower 30s. Light winds.

MONDAY
Sunny. Highs in the upper 50s.

MONDAY NIGHT
Mostly clear. Lows in the upper 30s.

TUESDAY
Partly sunny with a 40 percent chance of rain showers. Highs around 60.

TUESDAY NIGHT
Mostly cloudy with a 50 percent chance of showers. Lows in the mid 40s.

WEDNESDAY
Partly sunny with a 40 percent chance of showers. Highs in the upper 50s.

WEDNESDAY NIGHT
Mostly cloudy. Lows in the upper 30s.

THANKSGIVING DAY
Partly sunny. Highs in the lower 50s.

THURSDAY NIGHT
Mostly cloudy with a 30 percent chance of rain showers. Lows in the upper 30s.

FRIDAY
Mostly cloudy with a 40 percent chance of rain showers. Highs in the mid 50s.

Ag Weather Center, Department of Biosystems & Agricultural Engineering, University of Kentucky